User: anonymous   Login
Location: Unspecified
(0.0000°N, 0.0000°E)
Time: 07:37:28
(UTC+02:00)
Language:

Cosmos 1125 Rocket - Orbit

View from above orbital plane
View from above orbital plane
View from above satellite
View from above satellite

Ground track
Ground track

The orbit data is extracted from the following two-line orbital elements,

1 11511U 79078B   16180.16608552  .00000033  00000-0  20176-4 0  9995
2 11511  74.0366 245.9630 0016290 220.0786 139.9167 14.36716001927776
Epoch (UTC): 28 June 2016 03:59:09
Eccentricity: 0.0016290
inclination: 74.0366°
perigee height: 758 km
apogee height: 781 km
right ascension of ascending node: 245.9630°
argument of perigee: 220.0786°
revolutions per day: 14.36716001
mean anomaly at epoch: 139.9167°
orbit number at epoch: 92777

The dashed part of the orbit path shows where the satellite is in the earth's shadow,  

DLR